TimeCDT,TemperatureF,Dew PointF,Humidity,Sea Level PressureIn,VisibilityMPH,Wind Direction,Wind SpeedMPH,Gust SpeedMPH,PrecipitationIn,Events,Conditions,WindDirDegrees,DateUTC
12:35 AM,50.0,39.2,66,29.69,10.0,SE,9.2,-,N/A,,Unknown,140,2012-10-21 05:35:00
12:55 AM,50.0,39.2,66,29.68,10.0,SE,10.4,-,N/A,,Unknown,140,2012-10-21 05:55:00
1:15 AM,50.0,39.2,66,29.68,10.0,SE,8.1,-,N/A,,Unknown,140,2012-10-21 06:15:00
1:35 AM,50.0,41.0,71,29.68,10.0,Calm,Calm,-,N/A,,Unknown,0,2012-10-21 06:35:00
2:15 AM,48.2,41.0,76,29.68,10.0,SSE,4.6,-,N/A,,Unknown,150,2012-10-21 07:15:00
2:35 AM,48.2,41.0,76,29.68,10.0,SSE,8.1,-,N/A,,Clear,160,2012-10-21 07:35:00
2:55 AM,46.4,41.0,81,29.69,10.0,SSE,6.9,-,N/A,,Unknown,150,2012-10-21 07:55:00
3:15 AM,46.4,41.0,81,29.69,10.0,Calm,Calm,-,N/A,,Clear,0,2012-10-21 08:15:00
3:35 AM,46.4,41.0,81,29.68,10.0,SSE,8.1,-,N/A,,Clear,160,2012-10-21 08:35:00
3:55 AM,46.4,41.0,81,29.68,10.0,SSE,6.9,-,N/A,,Clear,150,2012-10-21 08:55:00
4:15 AM,46.4,41.0,81,29.68,10.0,SSE,8.1,-,N/A,,Clear,150,2012-10-21 09:15:00
4:35 AM,46.4,42.8,87,29.68,10.0,SSE,8.1,-,N/A,,Clear,160,2012-10-21 09:35:00
5:15 AM,48.2,44.6,87,29.68,10.0,South,9.2,-,N/A,,Clear,170,2012-10-21 10:15:00
5:55 AM,48.2,44.6,87,29.68,10.0,South,9.2,-,N/A,,Clear,170,2012-10-21 10:55:00
6:15 AM,48.2,44.6,87,29.69,10.0,South,9.2,-,N/A,,Clear,170,2012-10-21 11:15:00
6:35 AM,46.4,44.6,93,29.69,10.0,SSE,8.1,-,N/A,,Unknown,160,2012-10-21 11:35:00
6:55 AM,46.4,44.6,93,29.70,10.0,South,9.2,-,N/A,,Clear,170,2012-10-21 11:55:00
7:15 AM,46.4,44.6,93,29.71,10.0,South,6.9,-,N/A,,Clear,180,2012-10-21 12:15:00
7:35 AM,46.4,44.6,93,29.72,10.0,South,3.5,-,N/A,,Clear,170,2012-10-21 12:35:00
7:55 AM,41.0,41.0,100,29.72,10.0,Calm,Calm,-,N/A,,Clear,0,2012-10-21 12:55:00
8:35 AM,41.0,41.0,100,29.74,9.0,Calm,Calm,-,N/A,,Clear,0,2012-10-21 13:35:00
8:55 AM,48.2,46.4,93,29.74,10.0,Calm,Calm,-,N/A,,Clear,0,2012-10-21 13:55:00
9:35 AM,51.8,48.2,88,29.76,10.0,Calm,Calm,-,N/A,,Clear,0,2012-10-21 14:35:00
10:15 AM,55.4,50.0,82,29.77,10.0,Calm,Calm,-,N/A,,Clear,0,2012-10-21 15:15:00
10:35 AM,57.2,50.0,77,29.76,9.0,Calm,Calm,-,N/A,,Clear,0,2012-10-21 15:35:00
10:55 AM,60.8,50.0,68,29.76,10.0,Calm,Calm,-,N/A,,Clear,0,2012-10-21 15:55:00
11:15 AM,64.4,50.0,59,29.76,10.0,Calm,Calm,-,N/A,,Clear,0,2012-10-21 16:15:00
11:35 AM,66.2,51.8,60,29.76,9.0,South,3.5,-,N/A,,Clear,170,2012-10-21 16:35:00
11:55 AM,69.8,53.6,56,29.76,9.0,SSE,5.8,-,N/A,,Clear,150,2012-10-21 16:55:00
12:15 PM,71.6,53.6,53,29.75,10.0,Calm,Calm,-,N/A,,Clear,0,2012-10-21 17:15:00
12:35 PM,73.4,55.4,53,29.75,10.0,Calm,Calm,-,N/A,,Clear,0,2012-10-21 17:35:00
12:55 PM,73.4,55.4,53,29.74,9.0,SE,6.9,-,N/A,,Clear,130,2012-10-21 17:55:00
1:15 PM,75.2,57.2,53,29.73,10.0,ESE,5.8,-,N/A,,Clear,110,2012-10-21 18:15:00
1:35 PM,75.2,57.2,53,29.73,10.0,ESE,6.9,-,N/A,,Clear,120,2012-10-21 18:35:00
1:55 PM,77.0,57.2,50,29.72,9.0,SE,11.5,-,N/A,,Clear,130,2012-10-21 18:55:00
2:15 PM,77.0,57.2,50,29.71,9.0,SE,11.5,-,N/A,,Clear,140,2012-10-21 19:15:00
2:35 PM,78.8,59.0,51,29.71,10.0,SSE,12.7,21.9,N/A,,Clear,150,2012-10-21 19:35:00
2:55 PM,77.0,59.0,54,29.71,10.0,South,10.4,-,N/A,,Clear,170,2012-10-21 19:55:00
3:15 PM,78.8,59.0,51,29.70,10.0,South,9.2,-,N/A,,Clear,180,2012-10-21 20:15:00
3:35 PM,78.8,59.0,51,29.70,10.0,SSE,9.2,-,N/A,,Partly Cloudy,150,2012-10-21 20:35:00
3:55 PM,80.6,59.0,48,29.70,10.0,SSE,8.1,-,N/A,,Clear,150,2012-10-21 20:55:00
4:15 PM,80.6,59.0,48,29.70,10.0,SE,9.2,-,N/A,,Partly Cloudy,130,2012-10-21 21:15:00
4:35 PM,78.8,59.0,51,29.70,10.0,ESE,4.6,-,N/A,,Clear,110,2012-10-21 21:35:00
4:55 PM,80.6,59.0,48,29.70,10.0,ESE,6.9,-,N/A,,Partly Cloudy,120,2012-10-21 21:55:00
5:15 PM,78.8,59.0,51,29.70,10.0,SE,4.6,-,N/A,,Partly Cloudy,130,2012-10-21 22:15:00
5:35 PM,78.8,59.0,51,29.70,10.0,SE,8.1,-,N/A,,Clear,140,2012-10-21 22:35:00
5:55 PM,77.0,59.0,54,29.71,10.0,ESE,8.1,-,N/A,,Mostly Cloudy,110,2012-10-21 22:55:00
6:15 PM,77.0,59.0,54,29.71,10.0,East,6.9,-,N/A,,Mostly Cloudy,100,2012-10-21 23:15:00
6:35 PM,75.2,59.0,57,29.72,10.0,East,5.8,-,N/A,,Mostly Cloudy,100,2012-10-21 23:35:00
6:55 PM,71.6,59.0,64,29.72,10.0,NE,6.9,-,N/A,,Overcast,50,2012-10-21 23:55:00
7:15 PM,71.6,59.0,64,29.73,10.0,NE,6.9,-,N/A,,Overcast,50,2012-10-22 00:15:00
7:35 PM,71.6,59.0,64,29.73,10.0,ENE,5.8,-,N/A,,Unknown,60,2012-10-22 00:35:00
7:55 PM,71.6,59.0,64,29.74,10.0,ESE,5.8,-,N/A,,Unknown,110,2012-10-22 00:55:00
8:15 PM,71.6,60.8,69,29.75,10.0,SSE,8.1,-,N/A,,Mostly Cloudy,160,2012-10-22 01:15:00
8:35 PM,71.6,60.8,69,29.76,10.0,SSE,6.9,-,N/A,,Unknown,160,2012-10-22 01:35:00
8:55 PM,69.8,60.8,73,29.76,10.0,South,6.9,-,N/A,,Unknown,170,2012-10-22 01:55:00
9:15 PM,68.0,60.8,78,29.76,10.0,SE,6.9,-,N/A,,Unknown,140,2012-10-22 02:15:00
9:35 PM,66.2,59.0,78,29.78,10.0,NNW,6.9,-,N/A,,Unknown,340,2012-10-22 02:35:00
10:15 PM,62.6,48.2,59,29.79,10.0,NNE,9.2,-,N/A,,Unknown,20,2012-10-22 03:15:00
10:35 PM,60.8,44.6,55,29.79,10.0,NNE,12.7,-,N/A,,Unknown,30,2012-10-22 03:35:00
10:55 PM,59.0,44.6,59,29.80,10.0,NNE,12.7,-,N/A,,Unknown,20,2012-10-22 03:55:00
11:35 PM,59.0,44.6,59,29.79,10.0,NNE,13.8,-,N/A,,Unknown,30,2012-10-22 04:35:00